GW1114 Weather Reports


time (UTC)temp
C
wind
direction
speed
KPH
gust
KPH
rain 1hr
cm
rain 24hr
cm
rain mn
cm
humidity
%
barometer
mb
20260505224533 26 202 0.0 1.6 0.00 0.00 0.00 40 1012.5
20260505224016 26 0 0.0 4.8 0.00 0.00 0.00 40 1012.5
20260505223515 26 0 0.0 4.8 0.00 0.00 0.00 38 1012.5
20260505223029 27 0 0.0 4.8 0.00 0.00 0.00 37 1012.5
20260505222514 27 0 0.0 8.0 0.00 0.00 0.00 37 1012.5
20260505222015 27 0 0.0 8.0 0.00 0.00 0.00 38 1012.5
20260505221530 27 0 1.6 8.0 0.00 0.00 0.00 35 1012.5
20260505221014 28 318 1.6 6.4 0.00 0.00 0.00 38 1012.5
20260505220515 28 143 0.0 4.8 0.00 0.00 0.00 35 1012.4
20260505220033 28 0 1.6 6.4 0.00 0.00 0.00 35 1012.2
20260505215518 29 184 1.6 6.4 0.00 0.00 0.00 33 1012.2
20260505215017 29 169 0.0 6.4 0.00 0.00 0.00 35 1012.5
20260505214539 30 187 1.6 8.0 0.00 0.00 0.00 35 1012.6
20260505214014 30 240 1.6 9.7 0.00 0.00 0.00 33 1012.5
20260505213517 30 180 1.6 9.7 0.00 0.00 0.00 32 1012.5
20260505213030 30 188 1.6 12.9 0.00 0.00 0.00 31 1012.5
20260505212517 30 101 1.6 12.9 0.00 0.00 0.00 35 1012.5
20260505212016 30 223 1.6 11.3 0.00 0.00 0.00 31 1012.6
20260505211530 30 157 3.2 11.3 0.00 0.00 0.00 29 1012.7
20260505211015 30 184 1.6 9.7 0.00 0.00 0.00 34 1012.7
20260505210517 30 258 1.6 9.7 0.00 0.00 0.00 31 1012.7
20260505210033 30 0 1.6 9.7 0.00 0.00 0.00 29 1012.7
20260505205517 31 213 1.6 8.0 0.00 0.00 0.00 32 1012.7
20260505205013 31 348 3.2 8.0 0.00 0.00 0.00 31 1012.9
20260505204532 31 29 1.6 8.0 0.00 0.00 0.00 34 1012.9
20260505204016 31 138 1.6 8.0 0.00 0.00 0.00 33 1012.9
20260505203514 31 180 1.6 12.9 0.00 0.00 0.00 33 1013.0
20260505203031 31 204 3.2 9.7 0.00 0.00 0.00 34 1013.0
20260505202517 31 0 1.6 8.0 0.00 0.00 0.00 33 1013.0
20260505202015 31 179 1.6 8.0 0.00 0.00 0.00 34 1012.9
20260505201532 30 180 1.6 8.0 0.00 0.00 0.00 33 1013.1
20260505201014 30 0 1.6 8.0 0.00 0.00 0.00 34 1013.1
20260505200516 30 0 1.6 9.7 0.00 0.00 0.00 35 1013.2
20260505200037 29 115 3.2 9.7 0.00 0.00 0.00 35 1013.3
20260505195514 28 163 1.6 16.1 0.00 0.00 0.00 36 1013.4
20260505195014 29 162 1.6 16.1 0.00 0.00 0.00 35 1013.6
20260505194530 30 286 3.2 9.7 0.00 0.00 0.00 34 1013.7
20260505194015 29 103 1.6 9.7 0.00 0.00 0.00 34 1013.9
20260505193516 29 38 1.6 8.0 0.00 0.00 0.00 35 1013.9
20260505193030 28 269 1.6 6.4 0.00 0.00 0.00 35 1013.9
20260505192517 28 0 1.6 6.4 0.00 0.00 0.00 37 1013.9
20260505192014 28 0 0.0 12.9 0.00 0.00 0.00 38 1013.8
20260505191532 28 99 1.6 12.9 0.00 0.00 0.00 37 1013.8
20260505191017 29 167 3.2 12.9 0.00 0.00 0.00 35 1014.0
20260505190514 28 229 0.0 9.7 0.00 0.00 0.00 37 1013.9
20260505190031 29 190 1.6 9.7 0.00 0.00 0.00 37 1013.9
20260505185514 29 0 3.2 8.0 0.00 0.00 0.00 37 1013.9
20260505185018 29 125 1.6 8.0 0.00 0.00 0.00 36 1014.0
20260505184531 29 259 1.6 8.0 0.00 0.00 0.00 34 1014.1
20260505184016 28 165 1.6 8.0 0.00 0.00 0.00 39 1014.1
20260505183514 27 206 1.6 8.0 0.00 0.00 0.00 40 1014.1
20260505183043 27 156 0.0 8.0 0.00 0.00 0.00 42 1014.1
20260505182514 27 197 1.6 8.0 0.00 0.00 0.00 40 1014.4
20260505182017 27 98 3.2 8.0 0.00 0.00 0.00 37 1014.4
20260505181532 27 28 1.6 9.7 0.00 0.00 0.00 38 1014.3
20260505181019 27 67 3.2 9.7 0.00 0.00 0.00 36 1014.5
20260505180513 27 5 3.2 9.7 0.00 0.00 0.00 37 1014.5
20260505180032 27 261 1.6 11.3 0.00 0.00 0.00 37 1014.7
20260505175516 27 109 3.2 11.3 0.00 0.00 0.00 37 1014.7
20260505175015 27 184 3.2 11.3 0.00 0.00 0.00 42 1014.8
20260505174532 27 323 1.6 9.7 0.00 0.00 0.00 38 1014.7
20260505174015 27 255 1.6 8.0 0.00 0.00 0.00 41 1014.9
20260505173514 26 0 1.6 8.0 0.00 0.00 0.00 42 1015.1
20260505173038 26 103 1.6 8.0 0.00 0.00 0.00 41 1015.1
20260505172514 26 170 3.2 8.0 0.00 0.00 0.00 42 1015.2
20260505172013 26 273 3.2 6.4 0.00 0.00 0.00 45 1015.2
20260505171533 25 352 1.6 4.8 0.00 0.00 0.00 43 1015.1
20260505171015 25 0 0.0 8.0 0.00 0.00 0.00 45 1015.2
20260505170515 25 142 1.6 8.0 0.00 0.00 0.00 46 1015.3
20260505170035 25 99 1.6 9.7 0.00 0.00 0.00 47 1015.1
20260505165516 24 184 1.6 11.3 0.00 0.00 0.00 47 1015.2
20260505165014 24 28 3.2 11.3 0.00 0.00 0.00 45 1015.1
20260505164531 23 65 1.6 12.9 0.00 0.00 0.00 48 1015.1
20260505164014 23 182 4.8 12.9 0.00 0.00 0.00 46 1015.1
20260505163514 23 105 3.2 9.7 0.00 0.00 0.00 47 1015.2
20260505163031 22 203 1.6 11.3 0.00 0.00 0.00 49 1015.3
20260505162513 22 98 1.6 11.3 0.00 0.00 0.00 48 1015.2
20260505162014 22 114 1.6 9.7 0.00 0.00 0.00 51 1015.3
20260505161532 22 313 1.6 11.3 0.00 0.00 0.00 52 1015.3
20260505161016 21 343 1.6 11.3 0.00 0.00 0.00 51 1015.4
20260505160517 21 177 1.6 6.4 0.00 0.00 0.00 51 1015.5
20260505153039 20 157 3.2 17.7 0.00 0.00 0.00 58 1015.3
20260505152513 19 294 3.2 17.7 0.00 0.00 0.00 60 1015.3
20260505152017 19 181 0.0 4.8 0.00 0.00 0.00 67 1015.3
20260505151535 18 0 0.0 3.2 0.00 0.00 0.00 68 1015.2
20260505151014 18 0 0.0 4.8 0.00 0.00 0.00 67 1015.2
20260505150514 18 0 1.6 4.8 0.00 0.00 0.00 65 1015.5
20260505140517 14 0 0.0 3.2 0.00 0.00 0.00 82 1015.5
20260505125014 10 0 0.0 0.0 0.00 0.00 0.00 96 1015.0
20260505124532 10 0 0.0 0.0 0.00 0.00 0.00 96 1015.0
20260505124016 10 0 0.0 0.0 0.00 0.00 0.00 96 1014.9
20260505123518 10 0 0.0 0.0 0.00 0.00 0.00 96 1015.0
20260505123035 10 0 0.0 0.0 0.00 0.00 0.00 96 1014.9
20260505122515 9 0 0.0 0.0 0.00 0.00 0.00 96 1014.7
20260505122021 9 0 0.0 0.0 0.00 0.00 0.00 95 1014.7
20260505121532 8 0 0.0 0.0 0.00 0.00 0.00 95 1014.9
20260505121017 8 0 0.0 0.0 0.00 0.00 0.00 95 1014.7
20260505120516 8 0 0.0 0.0 0.00 0.00 0.00 94 1014.8
20260505120038 8 0 0.0 0.0 0.00 0.00 0.00 94 1014.8
20260505115516 8 0 0.0 0.0 0.00 0.00 0.00 94 1014.8
20260505115016 8 0 0.0 0.0 0.00 0.00 0.00 94 1014.8
20260505114530 8 0 0.0 0.0 0.00 0.00 0.00 93 1014.6
20260505114017 8 0 0.0 0.0 0.00 0.00 0.00 93 1014.4
20260505113515 8 0 0.0 0.0 0.00 0.00 0.00 93 1014.4
20260505113032 8 0 0.0 0.0 0.00 0.00 0.00 92 1014.3
20260505112516 8 0 0.0 1.6 0.00 0.00 0.00 92 1014.2
20260505112014 8 0 0.0 1.6 0.00 0.00 0.00 92 1014.0
20260505111534 8 0 0.0 0.0 0.00 0.00 0.00 92 1013.9
20260505111018 8 0 0.0 0.0 0.00 0.00 0.00 92 1013.9
20260505110515 8 0 0.0 0.0 0.00 0.00 0.00 91 1013.8
20260505102018 8 0 0.0 1.6 0.00 0.00 0.00 91 1013.8
20260505101529 8 0 0.0 1.6 0.00 0.00 0.00 91 1013.7
20260505101016 8 0 0.0 0.0 0.00 0.00 0.00 91 1013.8
20260505100517 8 0 0.0 0.0 0.00 0.00 0.00 90 1013.8
20260505100032 8 0 0.0 0.0 0.00 0.00 0.00 90 1014.0
20260505095517 8 0 0.0 0.0 0.00 0.00 0.00 90 1014.1
20260505095014 8 0 0.0 0.0 0.00 0.00 0.00 90 1014.1
20260505094531 8 0 0.0 0.0 0.00 0.00 0.00 89 1013.9
20260505094014 8 0 0.0 0.0 0.00 0.00 0.00 89 1013.9
20260505093517 8 0 0.0 0.0 0.00 0.00 0.00 89 1013.8
20260505093032 8 0 0.0 0.0 0.00 0.00 0.00 89 1013.8
20260505092515 8 0 0.0 0.0 0.00 0.00 0.00 89 1013.8
20260505092017 8 0 0.0 0.0 0.00 0.00 0.00 89 1013.8
20260505091530 8 0 0.0 0.0 0.00 0.00 0.00 89 1013.8
20260505091016 8 0 0.0 0.0 0.00 0.00 0.00 89 1013.9
20260505090515 8 0 0.0 0.0 0.00 0.00 0.00 88 1014.1
20260505090036 8 0 0.0 0.0 0.00 0.00 0.00 88 1014.1
20260505085517 8 0 0.0 0.0 0.00 0.00 0.00 88 1014.1
20260505085018 8 0 0.0 0.0 0.00 0.00 0.00 88 1014.1
20260505084541 8 0 0.0 0.0 0.00 0.00 0.00 88 1014.2
20260505084015 9 0 0.0 0.0 0.00 0.00 0.00 88 1014.1
20260505083513 9 0 0.0 0.0 0.00 0.00 0.00 88 1014.1
20260505083032 9 0 0.0 0.0 0.00 0.00 0.00 88 1014.1
20260505082515 9 0 0.0 1.6 0.00 0.00 0.00 89 1014.1
20260505082017 9 0 0.0 1.6 0.00 0.00 0.00 89 1014.1
20260505081532 9 0 0.0 1.6 0.00 0.00 0.00 89 1014.1
20260505081015 9 0 0.0 0.0 0.00 0.00 0.00 88 1014.1
20260505080519 9 0 0.0 0.0 0.00 0.00 0.00 87 1014.2
20260505080030 9 0 0.0 0.0 0.00 0.00 0.00 88 1014.1
20260505075516 9 0 0.0 1.6 0.00 0.00 0.00 88 1014.0
20260505075018 9 0 0.0 1.6 0.00 0.00 0.00 87 1014.0
20260505074535 9 294 0.0 1.6 0.00 0.00 0.00 87 1014.0
20260505074015 9 0 0.0 0.0 0.00 0.00 0.00 87 1014.0
20260505073516 9 0 0.0 0.0 0.00 0.00 0.00 86 1014.1
20260505073041 10 0 0.0 0.0 0.00 0.00 0.00 87 1014.1
20260505072517 10 0 0.0 0.0 0.00 0.00 0.00 87 1014.1
20260505072015 10 0 0.0 0.0 0.00 0.00 0.00 86 1014.1
20260505071531 10 0 0.0 0.0 0.00 0.00 0.00 86 1014.1
20260505071017 10 0 0.0 1.6 0.00 0.00 0.00 86 1014.1
20260505070517 10 0 0.0 1.6 0.00 0.00 0.00 86 1014.1
20260505070040 10 0 0.0 1.6 0.00 0.00 0.00 85 1014.2
20260505065515 10 0 0.0 0.0 0.00 0.00 0.00 85 1014.1
20260505065014 10 0 0.0 0.0 0.00 0.00 0.00 85 1014.1
20260505064534 10 0 0.0 1.6 0.00 0.00 0.00 85 1014.0
20260505064017 10 0 0.0 1.6 0.00 0.00 0.00 86 1014.1
20260505063516 10 0 0.0 1.6 0.00 0.00 0.00 85 1014.1
20260505063032 10 0 0.0 1.6 0.00 0.00 0.00 85 1014.2
20260505062515 10 0 0.0 1.6 0.00 0.00 0.00 84 1014.1
20260505062015 10 0 0.0 1.6 0.00 0.00 0.00 83 1014.2
20260505061538 10 0 0.0 0.0 0.00 0.00 0.00 83 1014.2
20260505061017 10 0 0.0 0.0 0.00 0.00 0.00 83 1014.3
20260505060521 10 0 0.0 0.0 0.00 0.00 0.00 83 1014.3
20260505060035 10 0 0.0 0.0 0.00 0.00 0.00 83 1014.3
20260505055516 10 0 0.0 0.0 0.00 0.00 0.00 82 1014.3
20260505055016 11 0 0.0 0.0 0.00 0.00 0.00 82 1014.3
20260505054538 11 0 0.0 0.0 0.00 0.00 0.00 82 1014.4
20260505054017 11 0 0.0 0.0 0.00 0.00 0.00 83 1014.4
20260505053516 11 0 0.0 0.0 0.00 0.00 0.00 82 1014.3
20260505053032 11 0 0.0 0.0 0.00 0.00 0.00 81 1014.3
20260505052514 11 0 0.0 0.0 0.00 0.00 0.00 80 1014.3
20260505052015 11 0 0.0 0.0 0.00 0.00 0.00 80 1014.3
20260505051531 11 0 0.0 1.6 0.00 0.00 0.00 79 1014.3
20260505051016 11 0 0.0 1.6 0.00 0.00 0.00 79 1014.4
20260505050518 11 0 0.0 0.0 0.00 0.00 0.00 78 1014.3
20260505041548 12 0 0.0 0.0 0.00 0.00 0.00 75 1014.2
20260505041017 12 0 0.0 0.0 0.00 0.00 0.00 74 1014.1
20260505040515 12 0 0.0 0.0 0.00 0.00 0.00 73 1014.2
20260505040039 12 0 0.0 0.0 0.00 0.00 0.00 74 1014.2
20260505035517 12 0 0.0 1.6 0.00 0.00 0.00 73 1014.3
20260505035014 12 0 0.0 1.6 0.00 0.00 0.00 73 1014.3
20260505034532 13 0 0.0 1.6 0.00 0.00 0.00 73 1014.4
20260505034016 13 0 0.0 0.0 0.00 0.00 0.00 72 1014.3
20260505033515 13 0 0.0 0.0 0.00 0.00 0.00 72 1014.4
20260505033034 13 0 0.0 0.0 0.00 0.00 0.00 71 1014.3
20260505032515 13 0 0.0 0.0 0.00 0.00 0.00 70 1014.4
20260505032019 13 0 0.0 0.0 0.00 0.00 0.00 70 1014.3
20260505031539 13 0 0.0 0.0 0.00 0.00 0.00 70 1014.4
20260505031017 13 0 0.0 0.0 0.00 0.00 0.00 70 1014.3
20260505030516 14 0 0.0 0.0 0.00 0.00 0.00 70 1014.3
20260505030037 14 0 0.0 0.0 0.00 0.00 0.00 70 1014.3
20260505025517 14 0 0.0 0.0 0.00 0.00 0.00 69 1014.4
20260505025019 14 0 0.0 0.0 0.00 0.00 0.00 69 1014.3
20260505024533 15 0 0.0 1.6 0.00 0.00 0.00 68 1014.3
20260505024016 15 0 0.0 1.6 0.00 0.00 0.00 67 1014.4
20260505023514 15 0 0.0 0.0 0.00 0.00 0.00 67 1014.4
20260505023038 15 0 0.0 1.6 0.00 0.00 0.00 66 1014.3
20260505022517 15 0 0.0 1.6 0.00 0.00 0.00 66 1014.2
20260505022014 15 0 0.0 0.0 0.00 0.00 0.00 65 1014.1
20260505021534 16 0 0.0 0.0 0.00 0.00 0.00 64 1014.1
20260505021015 16 0 0.0 0.0 0.00 0.00 0.00 63 1014.2
20260505020517 16 0 0.0 0.0 0.00 0.00 0.00 63 1014.1
20260505020031 16 0 0.0 0.0 0.00 0.00 0.00 61 1014.0
20260505015517 16 0 0.0 0.0 0.00 0.00 0.00 60 1013.9
20260505015017 17 0 0.0 0.0 0.00 0.00 0.00 60 1013.8
20260505014546 17 0 0.0 0.0 0.00 0.00 0.00 60 1013.9
20260505014016 17 0 0.0 0.0 0.00 0.00 0.00 57 1014.0
20260505013516 17 0 0.0 0.0 0.00 0.00 0.00 57 1013.9
20260505013033 18 0 0.0 0.0 0.00 0.00 0.00 56 1013.8
20260505012516 18 0 0.0 0.0 0.00 0.00 0.00 55 1013.8
20260505012017 18 0 0.0 0.0 0.00 0.00 0.00 54 1013.8
20260505011535 18 0 0.0 0.0 0.00 0.00 0.00 54 1013.8
20260505011017 19 0 0.0 1.6 0.00 0.00 0.00 53 1013.8
20260505010514 20 0 0.0 1.6 0.00 0.00 0.00 52 1013.8
20260505010036 20 0 0.0 1.6 0.00 0.00 0.00 50 1013.8
20260505005517 20 0 0.0 0.0 0.00 0.00 0.00 49 1013.7
20260505005017 21 0 0.0 0.0 0.00 0.00 0.00 49 1013.7
20260505004607 21 0 0.0 0.0 0.00 0.00 0.00 49 1013.6
20260505004016 21 0 0.0 0.0 0.00 0.00 0.00 51 1013.6
20260505003517 21 0 0.0 0.0 0.00 0.00 0.00 48 1013.6
20260505003031 22 0 0.0 1.6 0.00 0.00 0.00 45 1013.6
20260505002517 22 0 0.0 1.6 0.00 0.00 0.00 44 1013.6
20260505002017 22 0 0.0 1.6 0.00 0.00 0.00 44 1013.5
20260505001534 23 0 0.0 1.6 0.00 0.00 0.00 44 1013.5
20260505001017 23 0 0.0 1.6 0.00 0.00 0.00 43 1013.5
20260505000521 23 0 0.0 1.6 0.00 0.00 0.00 42 1013.4
20260505000044 24 0 0.0 4.8 0.00 0.00 0.00 40 1013.4
20260504235517 24 0 0.0 6.4 0.00 0.00 0.00 39 1013.4
20260504235015 25 0 0.0 6.4 0.00 0.00 0.00 40 1013.4
20260504234535 25 0 0.0 1.6 0.00 0.00 0.00 39 1013.3
20260504234016 25 211 0.0 1.6 0.00 0.00 0.00 38 1013.4
20260504233516 26 0 0.0 1.6 0.00 0.00 0.00 38 1013.4
20260504233052 26 0 0.0 4.8 0.00 0.00 0.00 38 1013.4
20260504232514 26 220 0.0 6.4 0.00 0.00 0.00 35 1013.4
20260504232015 27 346 1.6 6.4 0.00 0.00 0.00 38 1013.4
20260504231537 27 319 1.6 4.8 0.00 0.00 0.00 36 1013.4
20260504231014 27 134 1.6 6.4 0.00 0.00 0.00 33 1013.5
20260504230517 28 167 1.6 6.4 0.00 0.00 0.00 32 1013.4
20260504230035 28 246 0.0 4.8 0.00 0.00 0.00 32 1013.4
20260504225517 28 0 1.6 4.8 0.00 0.00 0.00 32 1013.4
20260504225016 28 188 0.0 4.8 0.00 0.00 0.00 35 1013.4